Flag for Japan Weather past 2 weeks in Fukuoka, Japan

Now
54 °F

Clear.


Feels Like: 52 °F
Forecast: 49 / 57 °F
Wind: 7 mph from South

Location: Fukuoka Airport

Current Time: Jan 25, 2015 at 7:26:57 PM

Latest Report: Jan 25, 2015 at 7:00 PM


Visibility: 10 mi

Pressure: 30.24 "Hg

Humidity: 63%

Dew point: 41 °F

Location of FukuokaLocation

Historic Weather in Fukuoka — Graph

°F

Fukuoka temperature yesterday

Maximum temperature yesterday: 54 °F (at 12:30 PM)
Minimum temperature yesterday: 34 °F (at 1:30 AM)
Average temperature yesterday: 44 °F

Past Weeks' High & Low Weather Summary

 TemperatureHumidityPressure
High57 °F (Jan 21, 12:30 PM)100% (Jan 15, 12:30 AM)30.54 "Hg (Jan 15, 12:30 AM)
Low30 °F (Jan 18, 4:30 AM)29% (Jan 11, 9:30 PM)29.86 "Hg (Jan 15, 4:30 AM)
Average46 °F65%30.19 "Hg
* Reported Jan 10 6:00 PM — Jan 25 6:00 PM, Fukuoka, Weather by CustomWeather, © 2014

Note: Actual official high and low records may vary slightly from our data, if they occured in-between our weather recording intervals... More about our weather records

Advertising

Fukuoka weather history for previous 24 hours

 ConditionsComfort  
Time TempWeatherWind HumidityBarometerVisibility
6:00 PM
Jan 25
54 °FPartly cloudy.10 mph63%30.21 "HgN/A
5:30 PM55 °FBroken clouds.10 mph59%30.21 "HgN/A
5:00 PM55 °FSunny.10 mph59%30.21 "Hg10 mi
4:30 PM55 °FSunny.8 mph55%30.24 "Hg10 mi
4:00 PM55 °FPassing clouds.6 mph55%30.24 "HgN/A
3:30 PM57 °FPassing clouds.5 mph55%30.24 "HgN/A
3:00 PM57 °FPassing clouds.7 mph51%30.24 "HgN/A
2:30 PM57 °FSunny.12 mph51%30.24 "Hg10 mi
2:00 PM55 °FSunny.12 mph55%30.24 "Hg10 mi
1:30 PM57 °FSunny.10 mph48%30.24 "Hg10 mi
1:00 PM55 °FPassing clouds.9 mph51%30.27 "HgN/A
12:30 PM55 °FSunny.10 mph55%30.27 "Hg10 mi
11:30 AM54 °FSunny.15 mph58%30.30 "Hg10 mi
11:00 AM52 °FSunny.13 mph62%30.30 "Hg10 mi
10:30 AM48 °FSunny.14 mph71%30.33 "Hg10 mi
10:00 AM48 °FSunny.13 mph71%30.33 "Hg10 mi
9:30 AM46 °FSunny.9 mph76%30.33 "Hg10 mi
9:00 AM45 °FPassing clouds.6 mph81%30.33 "HgN/A
8:30 AM41 °FSunny.6 mph93%30.33 "Hg10 mi
8:00 AM41 °FSunny.1 mph87%30.33 "Hg10 mi
7:30 AM41 °FSunny.6 mph87%30.33 "Hg10 mi
7:00 AM41 °FPassing clouds.3 mph87%30.33 "HgN/A
6:30 AM39 °FPassing clouds.1 mph93%30.33 "HgN/A
6:00 AM41 °FPassing clouds.3 mph87%30.33 "HgN/A
5:30 AM41 °FPassing clouds.3 mph87%30.33 "HgN/A
5:00 AM41 °FPassing clouds.6 mph87%30.33 "HgN/A
4:30 AM41 °FPassing clouds.3 mph87%30.33 "HgN/A
4:00 AM39 °FPassing clouds.5 mph93%30.33 "HgN/A
3:30 AM39 °FPassing clouds.6 mph93%30.33 "HgN/A
3:00 AM39 °FPassing clouds.3 mph93%30.36 "HgN/A
2:30 AM39 °FPassing clouds.5 mph93%30.36 "HgN/A
2:00 AM43 °FPassing clouds.2 mph87%30.36 "HgN/A
1:30 AM41 °FPassing clouds.5 mph93%30.33 "HgN/A
1:00 AM41 °FPassing clouds.3 mph87%30.33 "HgN/A
12:30 AM41 °FPassing clouds.2 mph93%30.33 "HgN/A
12:00 AM41 °FPassing clouds.2 mph93%30.33 "HgN/A
11:30 PM
Jan 24
39 °FPassing clouds.5 mph93%30.33 "HgN/A
11:00 PM41 °FPassing clouds.5 mph93%30.33 "HgN/A
10:30 PM41 °FPassing clouds.5 mph93%30.33 "HgN/A
10:00 PM43 °FPassing clouds.6 mph87%30.33 "HgN/A
9:30 PM41 °FPassing clouds.6 mph87%30.33 "HgN/A
9:00 PM45 °FPassing clouds.3 mph76%30.33 "HgN/A
8:30 PM48 °FPassing clouds.2 mph71%30.33 "HgN/A
8:00 PM48 °FPassing clouds.2 mph71%30.33 "HgN/A
7:30 PM48 °FPassing clouds.5 mph71%30.30 "HgN/A
7:00 PM48 °FPassing clouds.7 mph71%30.30 "HgN/A
Weather by CustomWeather, © 2014

See weather overviewHow to use our weather pages